Location: Diebersbach
(48.5163°N, 8.0558°E)
Time: 19:12:33
(UTC+00:00)

Cosmos 1943 Rocket - Visible Passes

Search period start: 21 October 2021 00:00
Search period end: 31 October 2021 00:00
Orbit: 810 x 845 km, 71.0° (Epoch: 21 October)

Date Brightness Start Highest point End Pass type
(mag) Time Alt. Az. Time Alt. Az. Time Alt. Az.
21 Oct 4.4 19:43:07 10° N 19:44:35 14° N 19:44:35 14° N visible
21 Oct 5.1 21:25:57 10° NNW 21:26:06 11° NNW 21:26:06 11° NNW visible
22 Oct 4.4 19:24:01 10° N 19:25:42 14° NNE 19:25:42 14° NNE visible
22 Oct 4.9 21:06:44 10° NNW 21:07:12 12° NNW 21:07:12 12° NNW visible
23 Oct 4.3 19:04:56 10° N 19:06:50 14° NNE 19:06:50 14° NNE visible
23 Oct 4.8 20:47:32 10° NNW 20:48:20 14° NNW 20:48:20 14° NNW visible
24 Oct 4.3 18:45:52 10° N 18:47:58 13° NNE 18:47:58 13° NNE visible
24 Oct 4.6 20:28:20 10° NNW 20:29:29 16° NNW 20:29:29 16° NNW visible
25 Oct 4.2 18:26:50 10° N 18:29:08 12° NNE 18:29:08 12° NNE visible
25 Oct 4.4 20:09:09 10° NNW 20:10:39 18° N 20:10:39 18° N visible
26 Oct 4.2 18:07:52 10° N 18:09:45 12° NNE 18:10:19 11° NNE visible
26 Oct 4.2 19:49:57 10° NNW 19:51:50 20° N 19:51:50 20° N visible
27 Oct 4.3 17:49:00 10° NNE 17:50:20 11° NNE 17:51:31 10° NE visible
27 Oct 4.0 19:30:47 10° NNW 19:33:02 22° N 19:33:02 22° N visible
27 Oct 5.1 21:14:27 10° NW 21:14:33 10° NW 21:14:33 10° NW visible
28 Oct 4.3 17:30:35 10° NNE 17:30:55 10° NNE 17:31:16 10° NNE visible
28 Oct 3.8 19:11:35 10° NNW 19:14:16 23° N 19:14:16 23° N visible
28 Oct 4.9 20:55:11 10° NW 20:55:47 13° NW 20:55:47 13° NW visible
29 Oct 3.7 18:52:26 10° NNW 18:55:32 24° NNE 18:55:32 24° NNE visible
29 Oct 4.7 20:35:54 10° NW 20:37:03 16° NW 20:37:03 16° NW visible
30 Oct 3.5 18:33:16 10° NNW 18:36:50 25° NNE 18:36:50 25° NNE visible
30 Oct 4.4 20:16:38 10° NNW 20:18:20 20° NW 20:18:20 20° NW visible
